THOR AGENA B R/B, 1807

Orbit data source: Space-Track

THOR AGENA B R/B, 1807 is space debris in LEO originally from a launch on Mon, 29 Nov 1965 UTC launched from the Air Force Western Test Range (AFWTR). Debris objects in space refer to the collection of defunct objects orbiting the Earth. Examples of debris include non-operational satellites, rocket bodies, and fragments generated from explosions, collisions, or faulty payload assembly.

Loading next visibility...
THOR AGENA B R/B details
Identifier
1807, 1965-098C
Orbit
LEO
Last TLE update6 hours ago
Origin
Flag of USUSAF SSD (US)
ManufacturerLMSC
MissionSpacecraft
Bus & MotorAGENA B, Unknown motor
Mass600 kg wet, 600 kg dry
Launch date (UTC)
1965-11-29 (59 years ago)
Launch vehicleUnknown
Launch site
Air Force Western Test Range (AFWTR)
Object type
Payload
Rocket body
Debris
Shape & HBRCyl + 1 Nozzle, 6.3 m
Radar Cross Section8.306 m², Large (>1 m²)

Expand to show TLE details & history

TLE from 6 hours ago
0 THOR AGENA B R/B
1  1807U 65098C   25045.40762837  .00001643  00000-0  54983-3 0  9993
2  1807  79.8344  94.6021 1333595 299.9326  47.5811 12.27219811613060
Epoch: 2025-02-14T09:46Z
Definitive object data (Epoch: 2025-02-14T09:46:59.091Z)
Latitude-0.00002°
Longitude163.18605°
Altitude937.683 km
Speed7.669 km/s
True Right ascension06h 18m 24s
True Declination0° 00' 00"
Sunlit
Object was in full shadow at TLE epoch
Visualization TLE readout
Latitude-53.32864°
Longitude149.1332°
Altitude527.724 km
Speed8.089 km/s
Apparent Right ascension05h 44m 57s
Apparent Declination-46° 49' 39"
Sunlit
Object is in daylight
Visualization observer readout
Local Sidereal Time18:04:09
Azimuth154.842° SSE
Elevation-82.262°
Doppler factor1
Orbital elements
Apogee altitude2,617.121 km
Perigee altitude500.223 km
Semi-major axis7,936.809 km
Eccentricity0.1333595
Inclination79.8344°
RAAN94.6021°
Arg. of periapsis299.9326°
True anomaly60.18004°
Mean anomaly47.5811°
Eccentric anomaly53.7425°
Mean motion3.06955 °/min
BSTAR0.00054983
Orbital period117.28 mins
Loading maneuver chart data...
Loading historical data...
Loading historical data...
Loading historical data...
Loading historical data...
Loading historical data...
Loading historical data...
Loading historical data...

THOR AGENA B R/B Visibility forecast

Observer location: undefined°, undefined

Span
Click to sort rows by Start time (UTC) header in descending order
Start Az.
Max El. time (UTC)
Max El. Az.
Max El.
End time (UTC)
End Az.
24 mins2025-02-14 16:18:01.667Z336.837° NNW2025-02-14 16:30:01.667Z281.201° WNW32.875°2025-02-14 16:42:01.667Z214.621° SW
17 mins2025-02-15 03:30:01.667Z164.088° S2025-02-15 03:36:01.667Z83.796° E41.079°2025-02-15 03:47:01.667Z16.457° NNE
16 mins2025-02-15 05:30:01.667Z249.801° W2025-02-15 05:36:01.667Z305.737° NW29.128°2025-02-15 05:46:01.667Z0.928° NNE
16 mins2025-02-15 11:50:01.667Z11.547° NNE2025-02-15 11:58:01.667Z46.321° ENE17.042°2025-02-15 12:06:01.667Z81.297° E
25 mins2025-02-15 13:48:01.667Z356.517° N2025-02-15 14:01:01.667Z72.771° E39.809°2025-02-15 14:13:01.667Z145.829° SSE
|